• Em Portugal
  • Lista de países
  • Para 7 dias
  • Temperatura da água
  • Mapas de satélite
  • Mapa do tempo
  • Widgets de tempo
  • user-avatar
    Iniciar Sessão

    Previsão horária em Nigde

    Hoje, 22 Junho, Sexta-feira

    Tempo Temperatura Precipitação Vento Pressão Humidade
    00:00 +19°C° 0,1 mm 1 m/s 651 mmHg 69%
    01:00 +18°C° 0,1 mm 1 m/s 651 mmHg 69%
    02:00 +17°C° 0 mm 2 m/s 650 mmHg 68%
    03:00 +16°C° 0 mm 2 m/s 650 mmHg 69%
    04:00 +16°C° 0 mm 2 m/s 650 mmHg 70%
    05:00 +16°C° 0 mm 1 m/s 650 mmHg 70%
    06:00 +18°C° 0 mm 1 m/s 651 mmHg 66%
    07:00 +19°C° 0 mm 2 m/s 651 mmHg 61%
    08:00 +20°C° 0 mm 2 m/s 652 mmHg 56%
    09:00 +21°C° 0 mm 2 m/s 652 mmHg 52%
    10:00 +23°C° 0 mm 2 m/s 652 mmHg 48%
    11:00 +24°C° 0 mm 2 m/s 652 mmHg 44%
    12:00 +25°C° 0,1 mm 2 m/s 652 mmHg 42%
    13:00 +25°C° 0,1 mm 2 m/s 652 mmHg 41%
    14:00 +25°C° 0 mm 3 m/s 652 mmHg 41%
    15:00 +25°C° 0,1 mm 3 m/s 651 mmHg 41%
    16:00 +25°C° 0,1 mm 3 m/s 651 mmHg 41%
    17:00 +25°C° 0,1 mm 3 m/s 651 mmHg 41%
    18:00 +24°C° 0,1 mm 2 m/s 651 mmHg 46%
    19:00 +21°C° 0,1 mm 2 m/s 651 mmHg 51%
    20:00 +21°C° 0,1 mm 1 m/s 650 mmHg 57%
    21:00 +21°C° 0 mm 1 m/s 650 mmHg 57%
    22:00 +20°C° 0 mm 1 m/s 650 mmHg 58%
    23:00 +20°C° 0 mm 1 m/s 650 mmHg 59%

    Amanhã, 23 Junho, Sábado

    Tempo Temperatura Precipitação Vento Pressão Humidade
    00:00 +19°C° 0 mm 1 m/s 650 mmHg 59%
    01:00 +19°C° 0 mm 1 m/s 650 mmHg 59%
    02:00 +18°C° 0 mm 1 m/s 650 mmHg 59%
    03:00 +18°C° 0 mm 1 m/s 650 mmHg 60%
    04:00 +18°C° 0 mm 1 m/s 650 mmHg 61%
    05:00 +18°C° 0 mm 1 m/s 650 mmHg 62%
    06:00 +19°C° 0 mm 1 m/s 650 mmHg 56%
    07:00 +21°C° 0 mm 1 m/s 651 mmHg 51%
    08:00 +23°C° 0 mm 1 m/s 651 mmHg 46%
    09:00 +24°C° 0 mm 1 m/s 652 mmHg 43%
    10:00 +25°C° 0 mm 2 m/s 652 mmHg 41%
    11:00 +26°C° 0 mm 2 m/s 652 mmHg 38%
    12:00 +26°C° 0 mm 2 m/s 652 mmHg 38%
    13:00 +26°C° 0 mm 2 m/s 652 mmHg 37%
    14:00 +26°C° 0 mm 2 m/s 651 mmHg 37%
    15:00 +26°C° 0,1 mm 2 m/s 651 mmHg 38%
    16:00 +26°C° 0,1 mm 2 m/s 651 mmHg 39%
    17:00 +26°C° 0,1 mm 2 m/s 651 mmHg 41%
    18:00 +24°C° 0,2 mm 2 m/s 650 mmHg 45%
    19:00 +23°C° 0,2 mm 1 m/s 650 mmHg 50%
    20:00 +22°C° 0,2 mm 1 m/s 650 mmHg 55%
    21:00 +21°C° 0 mm 1 m/s 650 mmHg 56%
    22:00 +21°C° 0 mm 1 m/s 650 mmHg 58%
    23:00 +20°C° 0 mm 1 m/s 650 mmHg 60%

    Depois de amanhã, 24 Junho, Domingo

    Tempo Temperatura Precipitação Vento Pressão Humidade
    00:00 +20°C° 0 mm 1 m/s 650 mmHg 60%
    01:00 +19°C° 0 mm 1 m/s 650 mmHg 60%
    02:00 +19°C° 0 mm 1 m/s 650 mmHg 61%
    03:00 +19°C° 0 mm 1 m/s 650 mmHg 62%
    04:00 +19°C° 0 mm 1 m/s 650 mmHg 63%
    05:00 +19°C° 0 mm 1 m/s 650 mmHg 65%
    06:00 +20°C° 0 mm 1 m/s 650 mmHg 59%
    07:00 +22°C° 0 mm 1 m/s 651 mmHg 53%
    08:00 +23°C° 0 mm 1 m/s 651 mmHg 48%
    09:00 +24°C° 0 mm 1 m/s 651 mmHg 44%
    10:00 +25°C° 0 mm 2 m/s 652 mmHg 41%
    11:00 +27°C° 0 mm 2 m/s 652 mmHg 38%
    12:00 +27°C° 0 mm 2 m/s 652 mmHg 37%
    13:00 +27°C° 0 mm 2 m/s 651 mmHg 36%
    14:00 +28°C° 0 mm 2 m/s 651 mmHg 35%
    15:00 +28°C° 0 mm 2 m/s 651 mmHg 35%
    16:00 +27°C° 0 mm 2 m/s 651 mmHg 36%
    17:00 +27°C° 0 mm 2 m/s 651 mmHg 36%
    18:00 +26°C° 0,1 mm 2 m/s 651 mmHg 42%
    19:00 +25°C° 0,1 mm 2 m/s 651 mmHg 47%
    20:00 +23°C° 0,1 mm 2 m/s 651 mmHg 52%
    21:00 +21°C° 0 mm 2 m/s 650 mmHg 56%
    22:00 +21°C° 0 mm 2 m/s 650 mmHg 59%
    23:00 +20°C° 0 mm 2 m/s 650 mmHg 63%

    25 Junho, Segunda-feira

    Tempo Temperatura Precipitação Vento Pressão Humidade
    00:00 +19°C° 0 mm 2 m/s 650 mmHg 65%
    01:00 +19°C° 0 mm 2 m/s 650 mmHg 68%
    02:00 +18°C° 0 mm 2 m/s 650 mmHg 70%
    03:00 +18°C° 0 mm 2 m/s 650 mmHg 72%
    04:00 +18°C° 0 mm 2 m/s 650 mmHg 73%
    05:00 +18°C° 0 mm 2 m/s 650 mmHg 74%
    06:00 +19°C° 0 mm 2 m/s 650 mmHg 67%
    07:00 +21°C° 0 mm 2 m/s 651 mmHg 60%
    08:00 +24°C° 0 mm 2 m/s 651 mmHg 53%
    09:00 +25°C° 0 mm 2 m/s 652 mmHg 48%
    10:00 +26°C° 0 mm 2 m/s 652 mmHg 43%
    11:00 +28°C° 0 mm 2 m/s 652 mmHg 38%
    12:00 +28°C° 0,1 mm 2 m/s 652 mmHg 37%
    13:00 +29°C° 0,1 mm 2 m/s 652 mmHg 35%
    14:00 +29°C° 0,1 mm 2 m/s 651 mmHg 34%
    15:00 +29°C° 0,1 mm 2 m/s 651 mmHg 35%
    16:00 +29°C° 0,1 mm 2 m/s 651 mmHg 36%
    17:00 +28°C° 0,1 mm 2 m/s 651 mmHg 38%
    18:00 +27°C° 0,3 mm 2 m/s 651 mmHg 45%
    19:00 +25°C° 0,3 mm 2 m/s 651 mmHg 52%
    20:00 +24°C° 0,3 mm 2 m/s 651 mmHg 59%
    21:00 +23°C° 0,1 mm 2 m/s 650 mmHg 64%
    22:00 +21°C° 0,1 mm 2 m/s 650 mmHg 69%
    23:00 +20°C° 0,1 mm 2 m/s 650 mmHg 75%

    26 Junho, Terça-feira

    Tempo Temperatura Precipitação Vento Pressão Humidade
    00:00 +20°C° 0 mm 2 m/s 650 mmHg 77%
    01:00 +19°C° 0 mm 2 m/s 650 mmHg 79%
    02:00 +20°C° 0 mm 1 m/s 649 mmHg 81%
    03:00 +19°C° 0 mm 1 m/s 649 mmHg 81%
    04:00 +19°C° 0 mm 1 m/s 649 mmHg 82%
    05:00 +19°C° 0 mm 1 m/s 649 mmHg 83%
    06:00 +21°C° 0 mm 1 m/s 650 mmHg 73%
    07:00 +23°C° 0 mm 1 m/s 650 mmHg 64%
    08:00 +24°C° 0 mm 1 m/s 651 mmHg 55%
    09:00 +26°C° 0 mm 1 m/s 651 mmHg 49%
    10:00 +27°C° 0 mm 1 m/s 651 mmHg 43%
    11:00 +29°C° 0 mm 1 m/s 651 mmHg 38%
    12:00 +30°C° 0 mm 1 m/s 651 mmHg 35%
    13:00 +30°C° 0 mm 2 m/s 651 mmHg 33%
    14:00 +31°C° 0 mm 2 m/s 651 mmHg 30%
    15:00 +31°C° 0,1 mm 2 m/s 651 mmHg 32%
    16:00 +30°C° 0,1 mm 2 m/s 651 mmHg 33%
    17:00 +30°C° 0,1 mm 2 m/s 650 mmHg 35%
    18:00 +28°C° 0 mm 2 m/s 650 mmHg 41%
    19:00 +27°C° 0 mm 2 m/s 650 mmHg 48%
    20:00 +25°C° 0 mm 2 m/s 650 mmHg 54%
    21:00 +25°C° 0 mm 2 m/s 650 mmHg 58%
    22:00 +24°C° 0 mm 2 m/s 650 mmHg 63%
    23:00 +23°C° 0 mm 1 m/s 650 mmHg 68%

    27 Junho, Quarta-feira

    Tempo Temperatura Precipitação Vento Pressão Humidade
    00:00 +22°C° 0 mm 1 m/s 650 mmHg 69%
    01:00 +22°C° 0 mm 1 m/s 649 mmHg 71%
    02:00 +21°C° 0 mm 1 m/s 649 mmHg 73%
    03:00 +21°C° 0 mm 1 m/s 649 mmHg 72%
    04:00 +21°C° 0 mm 1 m/s 650 mmHg 71%
    05:00 +21°C° 0 mm 1 m/s 650 mmHg 70%
    06:00 +23°C° 0 mm 1 m/s 650 mmHg 61%
    07:00 +24°C° 0 mm 1 m/s 651 mmHg 52%
    08:00 +26°C° 0 mm 2 m/s 651 mmHg 44%
    09:00 +27°C° 0 mm 2 m/s 652 mmHg 41%
    10:00 +28°C° 0 mm 2 m/s 652 mmHg 38%
    11:00 +29°C° 0 mm 2 m/s 652 mmHg 35%
    12:00 +30°C° 0 mm 2 m/s 652 mmHg 34%
    13:00 +31°C° 0 mm 3 m/s 652 mmHg 32%
    14:00 +31°C° 0 mm 3 m/s 652 mmHg 30%
    15:00 +31°C° 0 mm 3 m/s 652 mmHg 31%
    16:00 +31°C° 0 mm 3 m/s 652 mmHg 31%
    17:00 +30°C° 0 mm 3 m/s 652 mmHg 32%
    18:00 +29°C° 0 mm 3 m/s 651 mmHg 35%
    19:00 +27°C° 0 mm 3 m/s 651 mmHg 39%
    20:00 +26°C° 0 mm 2 m/s 651 mmHg 42%
    21:00 +25°C° 0 mm 2 m/s 651 mmHg 44%
    22:00 +24°C° 0 mm 2 m/s 651 mmHg 46%
    23:00 +24°C° 0 mm 2 m/s 651 mmHg 48%
    Mostrar mais